Location: Bullenkuhlen
(53.7689°N, 9.7495°E)
Time: 06:54:29
(UTC+00:00)

Cosmos 2233 Rocket - Pass Details

Date: 09 April 2020
Orbit: 952 x 991 km, 82.9° (Epoch: 02 June)

Event Time Altitude Azimuth Distance (km) Brightness Sun altitude
Rises 23:38:41 0° 348° (NNW) 3,707 8.2 -28.1°
Reaches altitude 10° 23:41:13 10° 348° (NNW) 2,750 7.2 -28.1°
Maximum altitude 23:47:32 84° 261° (W) 989 3.9 -28.0°
Enters shadow 23:47:59 77° 201° (SSW) 1,004 3.8 -28.0°
